| time (UTC) | temp F | wind direction | speed knots | gust knots | rain 1hr in | rain 24hr in | rain mn in | humidity % | barometer mb |
| 20260503201040 | 70 | 242 | 0.0 | 0.9 | 0.00 | 0.00 | 0.00 | 45 | 1018.9 |
| 20260503200058 | 70 | 200 | 4.3 | 6.1 | 0.00 | 0.00 | 0.00 | 46 | 1019.2 |
| 20260503195040 | 70 | 180 | 4.3 | 5.2 | 0.00 | 0.00 | 0.00 | 44 | 1019.3 |
| 20260503194939 | 70 | 200 | 5.2 | 6.1 | 0.00 | 0.00 | 0.00 | 44 | 1019.2 |
| 20260503193939 | 71 | 213 | 5.2 | 7.0 | 0.00 | 0.00 | 0.00 | 46 | 1019.4 |
| 20260503191939 | 69 | 225 | 1.7 | 2.6 | 0.00 | 0.00 | 0.00 | 47 | 1020.1 |
| 20260503185939 | 70 | 180 | 0.0 | 0.0 | 0.00 | 0.00 | 0.00 | 47 | 1020.3 |
| 20260503184942 | 68 | 249 | 0.0 | 2.6 | 0.00 | 0.00 | 0.00 | 48 | 1020.4 |
| 20260503183042 | 69 | 149 | 2.6 | 3.5 | 0.00 | 0.00 | 0.00 | 45 | 1020.6 |
| 20260503182139 | 69 | 241 | 0.9 | 1.7 | 0.00 | 0.00 | 0.00 | 45 | 1020.9 |
| 20260503181142 | 70 | 334 | 1.7 | 4.3 | 0.00 | 0.00 | 0.00 | 47 | 1020.9 |
| 20260503180140 | 70 | 289 | 1.7 | 2.6 | 0.00 | 0.00 | 0.00 | 46 | 1021.0 |
| 20260503175142 | 69 | 277 | 0.0 | 0.9 | 0.00 | 0.00 | 0.00 | 48 | 1021.2 |
| 20260503173242 | 68 | 304 | 1.7 | 2.6 | 0.00 | 0.00 | 0.00 | 48 | 1021.2 |
| 20260503171339 | 66 | 296 | 0.0 | 0.0 | 0.00 | 0.00 | 0.00 | 52 | 1021.4 |
| 20260503170340 | 66 | 96 | 3.5 | 4.3 | 0.00 | 0.00 | 0.00 | 49 | 1021.5 |
| 20260503130642 | 56 | 346 | 0.0 | 1.7 | 0.00 | 0.00 | 0.00 | 97 | 1021.7 |
| 20260503110757 | 44 | 180 | 0.0 | 0.0 | 0.00 | 0.00 | 0.00 | 98 | 1019.8 |
| 20260503090141 | 45 | 180 | 0.0 | 0.0 | 0.00 | 0.00 | 0.00 | 98 | 1018.8 |
| 20260503081141 | 46 | 180 | 0.0 | 0.0 | 0.00 | 0.00 | 0.00 | 97 | 1018.4 |
| 20260503080239 | 46 | 180 | 0.0 | 0.0 | 0.00 | 0.00 | 0.00 | 98 | 1018.3 |
| 20260503071240 | 47 | 180 | 0.0 | 0.0 | 0.00 | 0.00 | 0.00 | 98 | 1017.9 |
| 20260503070241 | 48 | 180 | 0.0 | 0.0 | 0.00 | 0.00 | 0.00 | 98 | 1017.9 |
| 20260503053539 | 50 | 180 | 0.0 | 0.0 | 0.00 | 0.00 | 0.00 | 98 | 1017.9 |
| 20260503052540 | 50 | 180 | 0.0 | 0.0 | 0.00 | 0.00 | 0.00 | 97 | 1018.0 |
| 20260503051540 | 50 | 180 | 0.0 | 0.0 | 0.00 | 0.00 | 0.00 | 97 | 1017.9 |
| 20260503050542 | 51 | 180 | 0.0 | 0.0 | 0.00 | 0.00 | 0.00 | 97 | 1018.0 |
| 20260503045539 | 51 | 180 | 0.0 | 0.0 | 0.00 | 0.00 | 0.00 | 98 | 1018.0 |
| 20260503044540 | 51 | 180 | 0.0 | 0.0 | 0.00 | 0.00 | 0.00 | 98 | 1017.8 |
| 20260503043541 | 51 | 180 | 0.0 | 0.0 | 0.00 | 0.00 | 0.00 | 98 | 1017.6 |
| 20260503042538 | 52 | 180 | 0.0 | 0.9 | 0.00 | 0.00 | 0.00 | 98 | 1017.6 |
| 20260503041540 | 52 | 180 | 0.0 | 0.0 | 0.00 | 0.00 | 0.00 | 98 | 1017.3 |
| 20260503040540 | 52 | 180 | 0.0 | 0.0 | 0.00 | 0.00 | 0.00 | 98 | 1017.1 |
| 20260503035621 | 51 | 180 | 0.0 | 0.0 | 0.00 | 0.00 | 0.00 | 97 | 1017.5 |
| 20260503033624 | 51 | 180 | 0.0 | 0.0 | 0.00 | 0.00 | 0.00 | 96 | 1016.9 |
| 20260503032622 | 51 | 180 | 0.0 | 0.0 | 0.00 | 0.00 | 0.00 | 97 | 1016.9 |
| 20260503031622 | 51 | 180 | 0.0 | 0.0 | 0.00 | 0.00 | 0.00 | 97 | 1016.8 |
| 20260503030622 | 51 | 180 | 0.0 | 0.0 | 0.00 | 0.00 | 0.00 | 96 | 1016.8 |
| 20260503025624 | 51 | 180 | 0.0 | 0.0 | 0.00 | 0.00 | 0.00 | 97 | 1016.6 |
| 20260503024622 | 51 | 180 | 0.0 | 0.0 | 0.00 | 0.00 | 0.00 | 97 | 1016.2 |
| 20260503023621 | 51 | 180 | 0.0 | 0.0 | 0.00 | 0.00 | 0.00 | 96 | 1016.1 |
| 20260503022623 | 51 | 180 | 0.0 | 0.0 | 0.00 | 0.00 | 0.00 | 97 | 1016.0 |
| 20260503020723 | 52 | 180 | 0.0 | 0.9 | 0.00 | 0.00 | 0.00 | 96 | 1015.8 |
| 20260503015739 | 52 | 180 | 0.0 | 0.0 | 0.00 | 0.00 | 0.00 | 96 | 1015.8 |
| 20260503014823 | 52 | 180 | 0.0 | 0.0 | 0.00 | 0.00 | 0.00 | 96 | 1015.7 |
| 20260503013825 | 53 | 180 | 0.0 | 0.0 | 0.00 | 0.00 | 0.00 | 96 | 1015.7 |
| 20260503011923 | 53 | 180 | 0.0 | 0.0 | 0.00 | 0.00 | 0.00 | 95 | 1015.6 |
| 20260503010924 | 53 | 180 | 0.0 | 0.0 | 0.00 | 0.00 | 0.00 | 95 | 1015.5 |
| 20260503005121 | 54 | 180 | 0.0 | 0.9 | 0.00 | 0.00 | 0.00 | 93 | 1015.2 |
| 20260503004123 | 54 | 180 | 0.0 | 0.0 | 0.00 | 0.00 | 0.00 | 93 | 1014.9 |
| 20260503003140 | 54 | 180 | 0.0 | 0.0 | 0.00 | 0.00 | 0.00 | 93 | 1014.8 |
| 20260503002224 | 54 | 180 | 0.0 | 0.0 | 0.00 | 0.00 | 0.00 | 93 | 1014.7 |
| 20260503001322 | 54 | 180 | 0.0 | 0.0 | 0.00 | 0.00 | 0.00 | 91 | 1014.6 |
| 20260503000321 | 55 | 180 | 0.0 | 0.9 | 0.00 | 0.00 | 0.00 | 92 | 1014.7 |
| 20260502235421 | 55 | 180 | 0.9 | 0.9 | 0.00 | 0.00 | 0.00 | 92 | 1014.6 |
| 20260502234438 | 55 | 180 | 0.0 | 0.9 | 0.00 | 0.00 | 0.00 | 92 | 1014.4 |
| 20260502232521 | 55 | 180 | 0.9 | 1.7 | 0.00 | 0.00 | 0.00 | 92 | 1014.1 |
| 20260502231524 | 55 | 180 | 1.7 | 1.7 | 0.00 | 0.00 | 0.00 | 92 | 1014.0 |
| 20260502231423 | 55 | 180 | 0.9 | 1.7 | 0.00 | 0.00 | 0.00 | 91 | 1014.0 |
| 20260502230424 | 55 | 180 | 1.7 | 2.6 | 0.00 | 0.00 | 0.00 | 92 | 1014.1 |
| 20260502225424 | 55 | 180 | 1.7 | 2.6 | 0.00 | 0.00 | 0.00 | 92 | 1014.0 |
| 20260502224521 | 55 | 180 | 1.7 | 2.6 | 0.00 | 0.00 | 0.00 | 92 | 1014.1 |
| 20260502222524 | 56 | 180 | 0.9 | 0.9 | 0.00 | 0.00 | 0.00 | 91 | 1014.0 |
| 20260502221523 | 56 | 180 | 1.7 | 2.6 | 0.00 | 0.00 | 0.00 | 92 | 1013.9 |
| 20260502220523 | 56 | 180 | 2.6 | 3.5 | 0.00 | 0.00 | 0.00 | 92 | 1013.8 |
| 20260502215523 | 56 | 180 | 0.9 | 1.7 | 0.00 | 0.00 | 0.00 | 90 | 1013.7 |
| 20260502214521 | 56 | 180 | 1.7 | 2.6 | 0.00 | 0.00 | 0.00 | 92 | 1013.6 |
| 20260502213522 | 56 | 180 | 0.9 | 2.6 | 0.00 | 0.00 | 0.00 | 92 | 1013.4 |
| 20260502212523 | 56 | 180 | 0.9 | 2.6 | 0.00 | 0.00 | 0.00 | 91 | 1013.3 |
| 20260502212424 | 56 | 180 | 0.0 | 0.9 | 0.00 | 0.00 | 0.00 | 92 | 1013.4 |
| 20260502211439 | 55 | 180 | 1.7 | 2.6 | 0.00 | 0.00 | 0.00 | 92 | 1013.3 |
| 20260502210522 | 56 | 180 | 2.6 | 4.3 | 0.00 | 0.00 | 0.00 | 92 | 1013.3 |
| 20260502205522 | 56 | 180 | 1.7 | 4.3 | 0.00 | 0.00 | 0.00 | 92 | 1013.2 |
| 20260502204523 | 56 | 360 | 1.7 | 2.6 | 0.00 | 0.00 | 0.00 | 92 | 1013.2 |
| 20260502203523 | 56 | 19 | 3.5 | 5.2 | 0.00 | 0.00 | 0.00 | 92 | 1013.1 |
| 20260502201621 | 56 | 3 | 2.6 | 4.3 | 0.00 | 0.00 | 0.00 | 93 | 1013.0 |